Weather History for St. George, UT

Change the Weather History Date:

Saturday, May 11, 2013

  Actual Average Record
Temperature  
Mean Temperature 71 °F -  
Max Temperature 87 °F 85 °F 101 °F (1960)
Min Temperature 55 °F 51 °F 32 °F (1948)
Cooling Degree Days 6    
Growing Degree Days 21 (Base 50)    
Moisture  
Dew Point 35 °F    
Average Humidity 29    
Maximum Humidity 47    
Minimum Humidity 14    
Precipitation  
Precipitation 0.00 in - - ()
Sea Level Pressure  
Sea Level Pressure 30.22 in    
Wind  
Wind Speed 4 mph (NNE)    
Max Wind Speed 13 mph    
Max Gust Speed 16 mph    
Visibility 10 miles    
Events      
Averages and records for this station are not official NWS values.
T = Trace of Precipitation, MM = Missing Value Source: NWS Daily Summary

Daily Weather History Graph

Daily Weather History Graph

Search for Another Location

Airport:

Trip Planner

Search our weather history database for the weather conditions in past years. The results will help you decide how hot, cold, wet, or windy it might be!

Date:

Astronomy

May. 11, 2013 Rise Set
Actual Time 6:29 AM MDT 8:32 PM MDT
Civil Twilight 6:00 AM MDT 9:01 PM MDT
Nautical Twilight 5:25 AM MDT 9:36 PM MDT
Astronomical Twilight 4:47 AM MDT 10:14 PM MDT
Moon 7:40 AM MDT (5/11) 10:15 PM MDT (5/11)
Length of Visible Light 15h 00m
Length of Day
14h 03m
Waxing Crescent, 3% of the Moon is Illuminated
May 11
Waxing Crescent
May 17
First Quarter
May 24
Full
May 31
Last Quarter
Jun 8
New

Hourly Weather History & Observations

Time (MDT) Temp. Dew Point Humidity Pressure Visibility Wind Dir Wind Speed Gust Speed Precip Events Conditions
12:15 AM 64.4 °F 39.2 °F 40% 30.19 in 10.0 mi South 3.5 mph - N/A   Clear
12:35 AM 64.4 °F 37.4 °F 37% 30.20 in 10.0 mi SSE 3.5 mph - N/A   Clear
12:55 AM 62.6 °F 35.6 °F 37% 30.20 in 10.0 mi SE 3.5 mph - N/A   Clear
1:15 AM 64.4 °F 37.4 °F 37% 30.20 in 10.0 mi Calm Calm - N/A   Clear
1:35 AM 62.6 °F 39.2 °F 42% 30.21 in 10.0 mi Calm Calm - N/A   Clear
1:55 AM 62.6 °F 37.4 °F 39% 30.21 in 10.0 mi Calm Calm - N/A   Clear
2:15 AM 62.6 °F 35.6 °F 37% 30.21 in 10.0 mi East 6.9 mph - N/A   Clear
2:35 AM 60.8 °F 35.6 °F 39% 30.22 in 10.0 mi East 5.8 mph - N/A   Clear
2:55 AM 60.8 °F 35.6 °F 39% 30.22 in 10.0 mi ESE 8.1 mph - N/A   Clear
3:15 AM 60.8 °F 35.6 °F 39% 30.22 in 10.0 mi SE 4.6 mph - N/A   Clear
3:35 AM 60.8 °F 35.6 °F 39% 30.23 in 10.0 mi Calm Calm - N/A   Clear
3:55 AM 60.8 °F 35.6 °F 39% 30.23 in 10.0 mi Calm Calm - N/A   Clear
4:15 AM 60.8 °F 35.6 °F 39% 30.23 in 10.0 mi SE 4.6 mph - N/A   Clear
4:35 AM 59.0 °F 35.6 °F 42% 30.22 in 10.0 mi SSW 3.5 mph - N/A   Clear
4:55 AM 59.0 °F 35.6 °F 42% 30.23 in 10.0 mi East 3.5 mph - N/A   Clear
5:15 AM 57.2 °F 35.6 °F 44% 30.23 in 10.0 mi SE 8.1 mph - N/A   Clear
5:35 AM 55.4 °F 35.6 °F 47% 30.23 in 10.0 mi SE 8.1 mph - N/A   Clear
5:55 AM 57.2 °F 35.6 °F 44% 30.24 in 10.0 mi SE 6.9 mph - N/A   Clear
6:15 AM 55.4 °F 35.6 °F 47% 30.24 in 10.0 mi East 8.1 mph - N/A   Clear
6:35 AM 57.2 °F 35.6 °F 44% 30.25 in 10.0 mi WNW 4.6 mph - N/A   Clear
6:55 AM 55.4 °F 35.6 °F 47% 30.26 in 10.0 mi Calm Calm - N/A   Clear
7:15 AM 57.2 °F 35.6 °F 44% 30.27 in 10.0 mi ESE 6.9 mph - N/A   Clear
7:35 AM 60.8 °F 35.6 °F 39% 30.28 in 10.0 mi Calm Calm - N/A   Clear
7:55 AM 60.8 °F 35.6 °F 39% 30.28 in 10.0 mi ESE 4.6 mph - N/A   Clear
8:15 AM 62.6 °F 35.6 °F 37% 30.29 in 10.0 mi NNE 3.5 mph - N/A   Clear
8:35 AM 60.8 °F 39.2 °F 45% 30.29 in 10.0 mi NW 3.5 mph - N/A   Clear
8:55 AM 64.4 °F 37.4 °F 37% 30.29 in 10.0 mi Calm Calm - N/A   Clear
9:15 AM 64.4 °F 37.4 °F 37% 30.29 in 10.0 mi WSW 3.5 mph - N/A   Clear
9:35 AM 64.4 °F 37.4 °F 37% 30.29 in 10.0 mi Calm Calm - N/A   Clear
9:55 AM 66.2 °F 37.4 °F 35% 30.29 in 10.0 mi Calm Calm - N/A   Clear
10:15 AM 68.0 °F 37.4 °F 33% 30.29 in 10.0 mi Calm Calm - N/A   Clear
10:35 AM 71.6 °F 37.4 °F 29% 30.28 in 10.0 mi Calm Calm - N/A   Clear
10:55 AM 71.6 °F 37.4 °F 29% 30.28 in 10.0 mi North 3.5 mph - N/A   Clear
11:35 AM 75.2 °F 37.4 °F 25% 30.28 in 10.0 mi NW 4.6 mph - N/A   Clear
11:55 AM 75.2 °F 37.4 °F 25% 30.27 in 10.0 mi Calm Calm - N/A   Clear
12:15 PM 78.8 °F 37.4 °F 23% 30.26 in 10.0 mi SW 3.5 mph - N/A   Clear
12:35 PM 80.6 °F 37.4 °F 21% 30.25 in 10.0 mi West 5.8 mph - N/A   Clear
12:55 PM 80.6 °F 37.4 °F 21% 30.24 in 10.0 mi West 5.8 mph - N/A   Clear
1:15 PM 82.4 °F 37.4 °F 20% 30.24 in 10.0 mi SW 5.8 mph - N/A   Clear
1:35 PM 82.4 °F 35.6 °F 19% 30.23 in 10.0 mi NNW 3.5 mph - N/A   Clear
1:55 PM 84.2 °F 37.4 °F 19% 30.22 in 10.0 mi North 10.4 mph - N/A   Clear
2:15 PM 84.2 °F 35.6 °F 18% 30.22 in 10.0 mi NNW 10.4 mph - N/A   Clear
2:35 PM 86.0 °F 35.6 °F 17% 30.21 in 10.0 mi NNW 11.5 mph - N/A   Clear
2:55 PM 86.0 °F 35.6 °F 17% 30.20 in 10.0 mi NNW 11.5 mph 16.1 mph N/A   Clear
4:35 PM 87.8 °F 33.8 °F 15% 30.15 in 10.0 mi NW 5.8 mph - N/A   Clear
4:55 PM 87.8 °F 33.8 °F 15% 30.15 in 10.0 mi WNW 8.1 mph - N/A   Clear
5:15 PM 87.8 °F 33.8 °F 15% 30.15 in 10.0 mi NW 8.1 mph - N/A   Clear
5:35 PM 87.8 °F 33.8 °F 15% 30.15 in 10.0 mi West 8.1 mph - N/A   Clear
5:55 PM 87.8 °F 33.8 °F 15% 30.15 in 10.0 mi NNW 8.1 mph - N/A   Clear
6:15 PM 87.8 °F 33.8 °F 15% 30.15 in 10.0 mi NNW 12.7 mph - N/A   Clear
6:35 PM 87.8 °F 33.8 °F 15% 30.14 in 10.0 mi NW 8.1 mph - N/A   Clear
6:55 PM 87.8 °F 33.8 °F 15% 30.14 in 10.0 mi North 4.6 mph - N/A   Clear
7:15 PM 87.8 °F 32.0 °F 14% 30.14 in 10.0 mi Calm Calm - N/A   Clear
7:35 PM 86.0 °F 32.0 °F 14% 30.14 in 10.0 mi NW 4.6 mph - N/A   Clear
7:55 PM 86.0 °F 32.0 °F 14% 30.14 in 10.0 mi NNW 3.5 mph - N/A   Clear
8:15 PM 84.2 °F 32.0 °F 15% 30.14 in 10.0 mi NNW 3.5 mph - N/A   Clear
8:35 PM 84.2 °F 32.0 °F 15% 30.15 in 10.0 mi NNE 3.5 mph - N/A   Clear
8:55 PM 82.4 °F 32.0 °F 16% 30.15 in 10.0 mi NE 5.8 mph - N/A   Clear
9:15 PM 80.6 °F 30.2 °F 16% 30.15 in 10.0 mi East 10.4 mph - N/A   Clear
9:35 PM 78.8 °F 30.2 °F 17% 30.16 in 10.0 mi East 9.2 mph - N/A   Clear
10:15 PM 78.8 °F 30.2 °F 17% 30.18 in 10.0 mi North 4.6 mph - N/A   Clear
10:35 PM 77.0 °F 30.2 °F 18% 30.19 in 10.0 mi ENE 5.8 mph - N/A   Clear
10:55 PM 77.0 °F 30.2 °F 18% 30.19 in 10.0 mi NE 4.6 mph - N/A   Clear
11:15 PM 73.4 °F 30.2 °F 20% 30.20 in 10.0 mi East 5.8 mph - N/A   Clear
11:35 PM 71.6 °F 30.2 °F 22% 30.20 in 10.0 mi East 3.5 mph - N/A   Clear
11:55 PM 73.4 °F 30.2 °F 20% 30.20 in 10.0 mi NNE 4.6 mph - N/A   Clear